Home   Weather   Mar del Plata   Past weeks
Flag for Argentina

Past Weather in Mar del Plata, Buenos Aires, Argentina — Yesterday and Last 2 Weeks

Now
50 °F

Overcast.


Feels Like: 48 °F
Forecast: 61 / 47 °F
Wind: 6 mph from Southwest

Location: Mar Del Plata Aerodrome

Current Time: Oct 19, 2019 at 7:40:11 am

Latest Report: Oct 19, 2019 at 6:00 am


Visibility: 6 mi

Pressure: 30.20 "Hg

Humidity: 90%

Dew Point: 47 °F

Location of Mar del PlataLocation

Past Weather in Mar del Plata — Graph

°F

Mar del Plata Temperature Yesterday

Maximum temperature yesterday: 62 °F (at 3:00 pm)
Minimum temperature yesterday: 51 °F (at 11:00 pm)
Average temperature yesterday: 56 °F

High & Low Weather Summary for the Past Weeks

 TemperatureHumidityPressure
High82 °F (Oct 10, 4:00 pm)100% (Oct 6, 4:00 am)30.59 "Hg (Oct 6, 4:00 am)
Low37 °F (Oct 8, 4:00 am)22% (Oct 10, 3:00 pm)29.64 "Hg (Oct 11, 2:00 am)
Average55 °F71%30.07 "Hg
* Reported Oct 4 6:00 am — Oct 19 6:00 am, Mar del Plata. Weather by CustomWeather, © 2019

Note: Actual official high and low records may vary slightly from our data, if they occured in-between our weather recording intervals... More about our weather records

Advertising

Mar del Plata Weather History for the Previous 24 Hours

Scroll right to see more
 ConditionsComfort  
Time TempWeatherWind HumidityBarometerVisibility
6:00 am
Sat, Oct 19
50 °FOvercast.6 mph90%30.20 "Hg6 mi
5:00 am50 °FPassing clouds.9 mph91%30.19 "Hg6 mi
4:00 am50 °FPassing clouds.6 mph91%30.18 "Hg6 mi
3:00 am49 °FPassing clouds.6 mph94%30.18 "Hg6 mi
2:00 am47 °FPassing clouds.3 mph95%30.18 "Hg6 mi
1:00 am49 °FPassing clouds.3 mph91%30.17 "Hg6 mi
12:00 am50 °FPassing clouds.8 mph89%30.18 "Hg6 mi
11:00 pm
Fri, Oct 18
51 °FPassing clouds.9 mph84%30.18 "Hg6 mi
10:00 pm52 °FPassing clouds.12 mph83%30.16 "Hg6 mi
9:00 pm53 °FPassing clouds.7 mph82%30.15 "Hg6 mi
8:00 pm53 °FPassing clouds.9 mph85%30.11 "Hg6 mi
7:00 pm55 °FPassing clouds.12 mph79%30.08 "Hg6 mi
6:00 pm58 °FPassing clouds.14 mph73%30.06 "Hg6 mi
5:00 pm60 °FPassing clouds.13 mph69%30.04 "Hg6 mi
4:00 pm62 °FPartly sunny.17 mph64%30.04 "Hg6 mi
3:00 pm62 °FScattered clouds.18 mph60%30.04 "Hg6 mi
2:00 pm62 °FPartly sunny.17 mph61%30.03 "Hg6 mi
1:00 pm61 °FOvercast.21 mph61%30.01 "Hg6 mi
12:00 pm60 °FPartly sunny.24 mph66%29.98 "Hg6 mi
11:00 am60 °FPartly sunny.20 mph66%29.96 "Hg6 mi
10:00 am57 °FPartly sunny.17 mph74%29.93 "Hg6 mi
9:00 am54 °FOvercast.20 mph81%29.91 "Hg6 mi
8:00 am54 °FDrizzle. Partly sunny.17 mph86%29.90 "Hg5 mi
7:00 am53 °FPartly sunny.14 mph83%29.88 "Hg6 mi
Weather by CustomWeather, © 2019

See weather overview